Date String (YYYY-MM-DD hh:mm:ss) UTC,Instrument flags,Ambient pressure (hPa),Sample flow (lpm),Bypass flow (lpm),Sample temperature (°C),Ambient temperature (°C),ASC tube jacket temperature (°C),LED temperature (°C),Box temperature (°C),Sample RH (%),Span deviation,Mass concentration (μg/m³),Mass concentration (μg/m³),Mass concentration (μg/m³)
DateTimeUTC,F1_M11,P_M11,Q1_M11,Q2_M11,T1_M11,T2_M11,T3_M11,T4_M11,T5_M11,U1_M11,ZSPAN_M11,X2_M11,X0_M11,X1_M11
2022-06-14 06:00:00,,0816.5,4.99,0.00,29.2,28.0,00.0,38.2,31.1,17.3,0000.0,0007.73,0023.23,0003.72
2022-06-14 06:01:00,,0816.6,5.00,0.00,29.2,28.0,00.0,38.2,31.1,17.2,0000.0,0008.01,0024.36,0003.75
2022-06-14 06:02:00,,0816.5,5.01,0.00,29.2,28.1,00.0,38.2,31.2,17.2,0000.0,0008.19,0025.80,0003.76
2022-06-14 06:03:00,,0816.6,5.00,0.00,29.2,28.1,00.0,38.2,31.2,17.1,0000.0,0008.45,0026.49,0003.79
2022-06-14 06:04:00,,0816.8,5.00,0.00,29.3,28.2,00.0,38.2,31.2,17.0,0000.0,0008.61,0026.12,0003.81
2022-06-14 06:05:00,,0817.0,5.00,0.00,29.3,28.2,00.0,38.2,31.2,16.9,0000.0,0008.81,0027.00,0003.84
2022-06-14 06:06:00,,0816.9,5.00,0.00,29.3,28.3,00.0,38.2,31.2,16.8,0000.0,0009.05,0029.35,0003.88
2022-06-14 06:07:00,,0816.9,5.00,0.00,29.3,28.3,00.0,38.2,31.3,16.7,0000.0,0009.16,0030.81,0003.90
2022-06-14 06:08:00,,0816.8,4.99,0.00,29.3,28.3,00.0,38.2,31.3,16.7,0000.5,0009.35,0031.26,0003.91
2022-06-14 06:09:00,,0816.9,4.99,0.00,29.3,28.4,00.0,38.2,31.2,16.6,0002.6,0009.59,0033.14,0003.92
2022-06-14 06:10:00,,0816.9,5.00,0.00,29.3,28.4,00.0,38.2,31.3,16.6,0000.6,0009.73,0032.53,0003.90
2022-06-14 06:11:00,,0816.9,5.00,0.00,29.3,28.4,00.0,38.2,31.3,16.6,0000.4,0009.96,0032.50,0003.91
2022-06-14 06:12:00,,0816.8,5.01,0.00,29.4,28.4,00.0,38.2,31.3,16.5,0000.2,0010.01,0032.66,0003.92
2022-06-14 06:13:00,,0816.9,4.99,0.00,29.4,28.4,00.0,38.3,31.3,16.5,0000.0,0010.13,0032.70,0003.95
2022-06-14 06:14:00,,0817.1,5.00,0.00,29.4,28.5,00.0,38.3,31.3,16.5,0000.0,0010.10,0032.47,0003.96
2022-06-14 06:15:00,,0817.0,4.99,0.00,29.4,28.5,00.0,38.3,31.3,16.5,0000.0,0010.02,0032.35,0003.95
2022-06-14 06:16:00,,0817.1,4.99,0.00,29.4,28.5,00.0,38.3,31.3,16.5,0000.0,0010.13,0033.29,0003.96
2022-06-14 06:17:00,,0817.1,5.01,0.00,29.4,28.5,00.0,38.3,31.3,16.5,0000.2,0010.20,0032.34,0003.96
2022-06-14 06:18:00,,0817.1,5.00,0.00,29.4,28.5,00.0,38.3,31.3,16.6,0000.8,0010.37,0031.38,0003.99
2022-06-14 06:19:00,,0817.1,5.00,0.00,29.4,28.5,00.0,38.3,31.3,16.6,0000.0,0010.37,0030.98,0004.03
2022-06-14 06:20:00,,0817.2,5.00,0.00,29.4,28.5,00.0,38.3,31.3,16.7,0000.0,0010.28,0029.46,0004.04
2022-06-14 06:21:00,,0817.2,5.00,0.00,29.4,28.5,00.0,38.3,31.3,16.7,0000.0,0010.27,0029.33,0004.07
2022-06-14 06:22:00,,0817.3,5.00,0.00,29.4,28.5,00.0,38.3,31.3,16.8,0000.8,0010.31,0029.76,0004.11
2022-06-14 06:23:00,,0817.3,5.00,0.00,29.4,28.5,00.0,38.3,31.3,16.8,0004.1,0010.42,0030.56,0004.12
2022-06-14 06:24:00,,0817.3,5.01,0.00,29.4,28.5,00.0,38.3,31.3,16.8,0005.8,0010.60,0031.08,0004.13
2022-06-14 06:25:00,,0817.3,5.00,0.00,29.4,28.5,00.0,38.3,31.3,16.8,0003.8,0010.80,0031.56,0004.14
2022-06-14 06:26:00,,0817.3,5.01,0.00,29.4,28.5,00.0,38.3,31.3,16.8,0004.6,0011.12,0032.93,0004.18
2022-06-14 06:27:00,,0817.4,5.02,0.00,29.4,28.5,00.0,38.3,31.2,16.8,0004.2,0011.20,0032.30,0004.20
2022-06-14 06:28:00,,0817.5,5.01,0.00,29.4,28.5,00.0,38.3,31.2,16.8,0004.3,0011.39,0032.35,0004.22
2022-06-14 06:29:00,,0817.4,4.99,0.00,29.4,28.5,00.0,38.3,31.2,16.9,0005.0,0011.54,0033.07,0004.23
2022-06-14 06:30:00,,0817.4,5.00,0.00,29.4,28.5,00.0,38.3,31.2,16.9,0004.4,0011.90,0034.51,0004.24
2022-06-14 06:31:00,,0817.4,5.00,0.00,29.4,28.5,00.0,38.3,31.2,16.9,0003.1,0012.34,0036.37,0004.27
2022-06-14 06:32:00,,0817.4,5.00,0.00,29.4,28.5,00.0,38.3,31.2,16.9,0002.5,0012.87,0038.98,0004.31
2022-06-14 06:33:00,,0817.5,4.99,0.00,29.4,28.5,00.0,38.3,31.2,16.9,0002.3,0013.43,0041.99,0004.33
2022-06-14 06:34:00,,0817.5,5.00,0.00,29.4,28.5,00.0,38.3,31.2,16.9,0003.6,0013.74,0044.57,0004.34
2022-06-14 06:35:00,,0817.5,5.01,0.00,29.3,28.5,00.0,38.3,31.2,17.0,0003.1,0014.00,0046.56,0004.38
2022-06-14 06:36:00,,0817.4,5.01,0.00,29.3,28.5,00.0,38.3,31.2,16.9,0003.0,0014.42,0049.00,0004.40
2022-06-14 06:37:00,,0817.5,5.00,0.00,29.3,28.5,00.0,38.3,31.2,16.9,0002.2,0014.61,0050.51,0004.42
2022-06-14 06:38:00,,0817.5,5.00,0.00,29.3,28.5,00.0,38.3,31.2,16.8,-001.5,0014.90,0051.65,0004.43
2022-06-14 06:39:00,,0817.5,5.00,0.00,29.4,28.5,00.0,38.3,31.2,16.7,-001.1,0015.02,0053.18,0004.42
2022-06-14 06:40:00,,0817.6,5.00,0.00,29.4,28.5,00.0,38.3,31.2,16.6,0000.0,0015.03,0052.90,0004.39
2022-06-14 06:41:00,,0817.5,5.00,0.00,29.4,28.5,00.0,38.3,31.2,16.6,-000.8,0014.93,0052.54,0004.37
2022-06-14 06:42:00,,0817.6,5.00,0.00,29.4,28.5,00.0,38.3,31.3,16.5,0000.0,0014.69,0051.53,0004.32
2022-06-14 06:43:00,,0817.6,5.00,0.00,29.4,28.5,00.0,38.3,31.3,16.4,0000.0,0014.22,0050.34,0004.27
2022-06-14 06:44:00,,0817.6,4.99,0.00,29.4,28.5,00.0,38.4,31.3,16.4,0000.6,0013.71,0047.67,0004.21
2022-06-14 06:45:00,,0817.6,5.00,0.00,29.4,28.5,00.0,38.4,31.3,16.4,0000.0,0013.39,0045.86,0004.15
2022-06-14 06:46:00,,0817.7,5.01,0.00,29.4,28.5,00.0,38.4,31.3,16.4,0000.0,0013.18,0043.12,0004.09
2022-06-14 06:47:00,,0817.8,5.01,0.00,29.4,28.5,00.0,38.4,31.3,16.4,0000.0,0013.01,0041.87,0004.05
2022-06-14 06:48:00,,0817.8,4.98,0.00,29.4,28.5,00.0,38.4,31.3,16.4,0000.0,0012.89,0040.85,0004.01
2022-06-14 06:49:00,,0817.8,5.01,0.00,29.4,28.5,00.0,38.4,31.3,16.4,0000.0,0012.66,0040.61,0003.98
2022-06-14 06:50:00,,0817.9,5.01,0.00,29.4,28.5,00.0,38.4,31.2,16.4,0000.0,0012.59,0039.85,0003.97
2022-06-14 06:51:00,,0817.9,5.00,0.00,29.4,28.5,00.0,38.4,31.2,16.5,0000.0,0012.68,0040.82,0003.97
2022-06-14 06:52:00,,0818.0,4.99,0.00,29.4,28.5,00.0,38.4,31.2,16.6,0000.0,0012.71,0041.55,0003.96
2022-06-14 06:53:00,,0818.0,5.00,0.00,29.4,28.5,00.0,38.4,31.2,16.6,0000.0,0012.84,0042.72,0003.96
2022-06-14 06:54:00,,0818.1,5.00,0.00,29.4,28.4,00.0,38.4,31.2,16.6,0000.1,0012.95,0042.42,0003.96
2022-06-14 06:55:00,,0818.1,5.00,0.00,29.3,28.4,00.0,38.4,31.1,16.6,0000.0,0013.09,0043.25,0003.98
2022-06-14 06:56:00,,0818.0,5.00,0.00,29.3,28.4,00.0,38.4,31.1,16.6,0000.0,0013.15,0044.24,0004.01
2022-06-14 06:57:00,,0818.0,5.00,0.00,29.3,28.4,00.0,38.3,31.1,16.7,0001.3,0013.16,0045.55,0004.02
2022-06-14 06:58:00,,0818.0,5.01,0.00,29.3,28.4,00.0,38.3,31.1,16.7,0002.7,0013.08,0046.08,0004.01
2022-06-14 06:59:00,,0818.0,4.99,0.00,29.3,28.3,00.0,38.3,31.1,16.7,0005.0,0012.93,0045.75,0004.00
